GW0614 Weather Reports


Display with metric or nautical units.
time (UTC)temp
F
wind
direction
speed
MPH
gust
MPH
rain 1hr
in
rain 24hr
in
rain mn
in
humidity
%
barometer
mb
20260905044021 58 38 0.0 0.0 0.00 0.00 0.00 99 1015.5
20260905043520 58 38 0.0 0.0 0.00 0.00 0.00 99 1015.5
20260905043015 58 38 0.0 0.0 0.00 0.00 0.00 99 1015.2
20260905042508 58 38 0.0 0.0 0.00 0.00 0.00 99 1015.2
20260905042004 58 38 0.0 0.0 0.00 0.00 0.00 99 1015.5
20260905041500 58 38 0.0 0.0 0.00 0.00 0.00 99 1015.7
20260905040955 58 38 0.0 0.0 0.00 0.00 0.00 99 1015.4
20260905040454 58 38 0.0 0.0 0.00 0.00 0.00 99 1015.5
20260905035953 58 38 0.0 0.0 0.00 0.00 0.00 99 1015.2
20260905035448 58 38 0.0 0.0 0.00 0.00 0.00 99 1015.2
20260905034946 58 38 0.0 0.0 0.00 0.00 0.00 99 1015.2
20260905034441 58 38 0.0 0.0 0.00 0.00 0.00 99 1015.2
20260905033940 59 38 0.0 0.0 0.00 0.00 0.00 99 1015.2
20260905033440 59 38 0.0 0.0 0.00 0.00 0.00 99 1015.0
20260905032934 59 38 0.0 0.0 0.00 0.00 0.00 99 1015.2
20260905032430 59 38 0.0 0.0 0.00 0.00 0.00 99 1015.1
20260905031924 59 38 0.0 0.0 0.00 0.00 0.00 99 1014.9
20260905031420 59 38 0.0 0.0 0.00 0.00 0.00 99 1015.0
20260905030915 59 38 0.0 0.0 0.00 0.00 0.00 99 1015.1
20260905030411 59 38 0.0 0.0 0.00 0.00 0.00 99 1015.1
20260905025910 59 38 0.0 0.0 0.00 0.00 0.00 99 1015.2
20260905025405 60 38 0.0 0.0 0.00 0.00 0.00 99 1015.2
20260905024902 60 38 0.0 0.0 0.00 0.00 0.00 99 1015.4
20260905024356 60 38 0.0 0.0 0.00 0.00 0.00 99 1015.4
20260905023852 60 38 0.0 0.0 0.00 0.00 0.00 99 1015.2
20260905023347 60 38 0.0 0.0 0.00 0.00 0.00 99 1015.1
20260905022846 60 38 0.0 0.0 0.00 0.00 0.00 99 1015.4
20260905022341 60 19 0.0 0.0 0.00 0.00 0.00 99 1015.5
20260905021836 60 19 0.0 0.0 0.00 0.00 0.00 99 1015.1
20260905021331 60 19 0.0 0.0 0.00 0.00 0.00 99 1015.5
20260905020826 60 19 0.0 0.0 0.00 0.00 0.00 99 1015.2
20260905020321 60 19 0.0 0.0 0.00 0.00 0.00 99 1015.0
20260905015820 60 19 0.0 0.0 0.00 0.00 0.00 99 1015.1
20260905015320 61 19 0.0 0.0 0.00 0.00 0.00 99 1015.1
20260905014819 61 19 0.0 0.0 0.00 0.00 0.00 99 1015.0
20260905014315 61 19 0.0 0.0 0.00 0.00 0.00 99 1015.1
20260905013810 61 19 0.0 0.0 0.00 0.00 0.00 99 1015.2
20260905013306 62 19 0.0 0.0 0.00 0.00 0.00 99 1015.1
20260905012801 62 19 0.0 0.0 0.00 0.00 0.00 99 1015.2
20260905012256 62 19 0.0 0.0 0.00 0.00 0.00 99 1015.4
20260905011753 62 19 0.0 0.0 0.00 0.00 0.00 99 1015.5
20260905011249 62 19 0.0 0.0 0.00 0.00 0.00 99 1015.2
20260905010743 62 19 0.0 0.0 0.00 0.00 0.00 99 1015.2
20260905010239 62 19 0.0 0.0 0.00 0.00 0.00 99 1015.2
20260905005736 62 19 0.0 0.0 0.00 0.00 0.00 99 1015.5
20260905005231 62 19 0.0 0.0 0.00 0.00 0.00 99 1015.4
20260905004730 62 19 0.0 0.0 0.00 0.00 0.00 99 1015.6
20260905004226 62 19 0.0 0.0 0.00 0.00 0.00 99 1015.2
20260905003725 62 19 0.0 0.0 0.00 0.00 0.00 99 1015.5
20260905003221 62 19 0.0 0.0 0.00 0.00 0.00 99 1015.4
20260905002717 62 19 0.0 0.0 0.00 0.00 0.00 99 1015.4
20260905002217 63 19 0.0 0.0 0.00 0.00 0.00 99 1015.1
20260905001712 63 19 0.0 0.0 0.00 0.00 0.00 99 1015.0
20260905001211 63 19 0.0 0.0 0.00 0.00 0.00 99 1015.1
20260905000706 63 19 0.0 0.0 0.00 0.00 0.00 99 1014.8
20260905000204 63 19 0.0 0.0 0.00 0.00 0.00 99 1014.8
20260904235702 63 19 0.0 0.0 0.00 0.00 0.00 99 1014.7
20260904235157 64 19 0.0 0.0 0.00 0.00 0.00 99 1014.6
20260904234652 64 19 0.0 0.0 0.00 0.00 0.00 99 1014.8
20260904234148 64 19 0.0 0.0 0.00 0.00 0.00 99 1014.8
20260904233643 64 19 0.0 0.0 0.00 0.00 0.00 99 1014.8
20260904233138 65 19 0.0 0.0 0.00 0.00 0.00 99 1014.7
20260904232635 65 19 0.0 0.0 0.00 0.00 0.00 99 1014.6
20260904232131 66 19 0.0 0.0 0.00 0.00 0.00 99 1014.6
20260904231626 66 19 0.0 0.0 0.00 0.00 0.00 99 1014.6
20260904231121 67 19 0.0 0.0 0.00 0.00 0.00 99 1014.5
20260904230621 67 19 0.0 0.0 0.00 0.00 0.00 98 1014.7
20260904230116 68 19 0.0 0.0 0.00 0.00 0.00 97 1014.4
20260904225613 69 19 0.0 0.0 0.00 0.00 0.00 95 1014.4
20260904225108 69 19 0.0 0.0 0.00 0.00 0.00 93 1014.2
20260904224603 71 18 0.0 0.0 0.00 0.00 0.00 91 1014.7
20260904224058 72 18 0.0 0.0 0.00 0.00 0.00 90 1014.4
20260904223557 73 18 0.0 0.0 0.00 0.00 0.00 86 1014.2
20260904223053 73 18 0.0 0.0 0.00 0.00 0.00 85 1014.4
20260904222549 72 18 0.0 0.0 0.00 0.00 0.00 87 1014.4
20260904222044 71 18 0.0 0.0 0.00 0.00 0.00 92 1014.3
20260904221538 71 18 0.0 0.0 0.00 0.00 0.00 92 1014.2
20260904221033 71 18 0.0 0.0 0.00 0.00 0.00 93 1014.3
20260904220533 72 18 0.0 0.0 0.00 0.00 0.00 91 1014.2
20260904220028 72 18 0.0 0.0 0.00 0.00 0.00 92 1014.1
20260904215528 72 18 0.0 0.0 0.00 0.00 0.00 90 1014.0
20260904215024 73 18 0.0 0.0 0.00 0.00 0.00 89 1014.1
20260904214519 73 18 0.0 0.0 0.00 0.00 0.00 88 1014.1
20260904214015 74 18 0.0 0.0 0.00 0.00 0.00 87 1014.2
20260904213512 74 18 0.0 0.0 0.00 0.00 0.00 82 1013.9
20260904213010 75 18 0.0 0.0 0.00 0.00 0.00 80 1014.3
20260904212509 76 18 0.0 0.0 0.00 0.00 0.00 78 1014.1
20260904212004 76 56 0.0 1.0 0.00 0.00 0.00 74 1014.1
20260904211458 77 327 0.0 0.0 0.00 0.00 0.00 75 1014.1
20260904210954 76 19 0.0 0.0 0.00 0.00 0.00 71 1014.1
20260904210453 77 341 0.0 0.0 0.00 0.00 0.00 77 1014.2
20260904205949 77 341 1.0 1.0 0.00 0.00 0.00 71 1014.4
20260904205444 77 333 0.0 0.0 0.00 0.00 0.00 71 1014.4
20260904204941 79 23 0.0 0.0 0.00 0.00 0.00 77 1014.4
20260904204436 80 330 2.0 2.0 0.00 0.00 0.00 68 1014.5
20260904203932 79 343 2.0 2.0 0.00 0.00 0.00 66 1014.6
20260904203429 79 346 0.0 0.0 0.00 0.00 0.00 68 1014.4
20260904202925 78 1 0.0 0.0 0.00 0.00 0.00 70 1014.6
20260904202420 77 339 0.0 1.0 0.00 0.00 0.00 72 1014.6
20260904201916 77 30 0.0 0.0 0.00 0.00 0.00 76 1014.6
20260904201411 78 6 0.0 0.0 0.00 0.00 0.00 76 1014.5
20260904200907 79 6 0.0 0.0 0.00 0.00 0.00 72 1014.4
20260904200405 79 357 0.0 0.0 0.00 0.00 0.00 72 1014.6
20260904195900 80 341 0.0 0.0 0.00 0.00 0.00 69 1014.4
20260904195358 82 333 0.0 0.0 0.00 0.00 0.00 62 1014.3
20260904194853 82 332 2.0 2.0 0.00 0.00 0.00 66 1014.4
20260904194352 82 2 0.0 0.0 0.00 0.00 0.00 64 1014.6
20260904193848 83 303 1.0 1.0 0.00 0.00 0.00 60 1014.6
20260904193343 81 352 0.0 0.0 0.00 0.00 0.00 69 1014.7
20260904192838 80 12 1.0 1.0 0.00 0.00 0.00 63 1014.6
20260904192333 83 298 0.0 0.0 0.00 0.00 0.00 64 1014.6
20260904191830 84 301 3.0 3.0 0.00 0.00 0.00 60 1014.6
20260904191326 82 340 0.0 0.0 0.00 0.00 0.00 67 1014.6
20260904190823 82 342 1.0 1.0 0.00 0.00 0.00 64 1014.6
20260904190318 83 334 2.0 2.0 0.00 0.00 0.00 61 1014.7
20260904185814 82 11 2.0 2.0 0.00 0.00 0.00 59 1014.8
20260904185310 81 352 1.0 1.0 0.00 0.00 0.00 64 1014.6
20260904184809 79 12 1.0 1.0 0.00 0.00 0.00 65 1014.8
20260904184304 82 331 0.0 0.0 0.00 0.00 0.00 64 1014.8
20260904183759 80 359 1.0 1.0 0.00 0.00 0.00 66 1014.7
20260904183254 80 40 2.0 2.0 0.00 0.00 0.00 66 1015.0
20260904182749 80 2 0.0 0.0 0.00 0.00 0.00 69 1014.8
20260904182244 82 333 0.0 0.0 0.00 0.00 0.00 64 1015.0
20260904181740 81 29 0.0 0.0 0.00 0.00 0.00 65 1015.1
20260904181240 78 340 0.0 0.0 0.00 0.00 0.00 73 1015.2
20260904180735 79 20 0.0 0.0 0.00 0.00 0.00 72 1015.5
20260904180230 80 19 0.0 0.0 0.00 0.00 0.00 67 1015.2
20260904175729 78 307 0.0 0.0 0.00 0.00 0.00 73 1015.1
20260904175228 82 326 4.0 7.0 0.00 0.00 0.00 58 1015.2
20260904174723 82 299 3.0 5.0 0.00 0.00 0.00 62 1015.2
20260904174219 82 16 0.0 0.0 0.00 0.00 0.00 67 1015.2
20260904173714 80 353 0.0 0.0 0.00 0.00 0.00 70 1015.1
20260904173209 80 13 0.0 0.0 0.00 0.00 0.00 67 1015.1
20260904172706 80 331 0.0 0.0 0.00 0.00 0.00 62 1015.4
20260904172204 80 356 0.0 1.0 0.00 0.00 0.00 65 1015.0
20260904171700 79 22 0.0 0.0 0.00 0.00 0.00 67 1014.9
20260904171154 81 9 0.0 1.0 0.00 0.00 0.00 64 1014.9
20260904170651 82 278 1.0 3.0 0.00 0.00 0.00 64 1014.8
20260904170147 81 1 1.0 1.0 0.00 0.00 0.00 63 1014.9
20260904165645 81 347 0.0 1.0 0.00 0.00 0.00 65 1015.0
20260904165144 81 318 1.0 2.0 0.00 0.00 0.00 70 1015.0
20260904164640 81 23 3.0 3.0 0.00 0.00 0.00 65 1015.0
20260904164135 81 46 0.0 0.0 0.00 0.00 0.00 71 1015.4
20260904163630 80 337 0.0 0.0 0.00 0.00 0.00 76 1015.5
20260904163120 78 350 1.0 1.0 0.00 0.00 0.00 70 1015.5
20260904162620 77 333 3.0 5.0 0.00 0.00 0.00 73 1015.5
20260904162115 79 300 2.0 3.0 0.00 0.00 0.00 71 1015.2
20260904161610 79 1 0.0 0.0 0.00 0.00 0.00 77 1015.5
20260904161105 77 9 0.0 0.0 0.00 0.00 0.00 81 1015.7
20260904160600 78 27 0.0 0.0 0.00 0.00 0.00 77 1015.6
20260904160057 77 357 1.0 2.0 0.00 0.00 0.00 78 1015.8
20260904155556 77 14 0.0 0.0 0.00 0.00 0.00 84 1015.7
20260904155050 76 17 0.0 0.0 0.00 0.00 0.00 88 1015.7
20260904154544 76 15 0.0 0.0 0.00 0.00 0.00 83 1015.9
20260904154039 76 17 0.0 0.0 0.00 0.00 0.00 81 1015.8
20260904153538 78 15 1.0 1.0 0.00 0.00 0.00 76 1015.9
20260904153035 76 13 0.0 0.0 0.00 0.00 0.00 87 1015.9
20260904152530 76 11 0.0 0.0 0.00 0.00 0.00 87 1016.2
20260904152026 77 10 0.0 0.0 0.00 0.00 0.00 80 1016.2
20260904151520 77 11 0.0 0.0 0.00 0.00 0.00 79 1016.1
20260904151015 76 12 0.0 0.0 0.00 0.00 0.00 85 1016.1
20260904150515 77 12 0.0 0.0 0.00 0.00 0.00 87 1016.3
20260904150009 77 10 0.0 0.0 0.00 0.00 0.00 82 1016.6
20260904145504 77 11 0.0 0.0 0.00 0.00 0.00 82 1016.4
20260904144959 75 13 0.0 0.0 0.00 0.00 0.00 86 1016.4
20260904144455 75 10 0.0 0.0 0.00 0.00 0.00 85 1016.4
20260904143950 77 10 0.0 0.0 0.00 0.00 0.00 85 1016.4
20260904143447 76 12 0.0 0.0 0.00 0.00 0.00 88 1016.1
20260904142943 77 14 1.0 2.0 0.00 0.00 0.00 83 1016.4
20260904142439 76 14 0.0 0.0 0.00 0.00 0.00 84 1016.1
20260904141938 76 14 0.0 0.0 0.00 0.00 0.00 84 1016.3
20260904141434 73 14 0.0 0.0 0.00 0.00 0.00 91 1016.3
20260904140930 73 13 0.0 0.0 0.00 0.00 0.00 93 1016.0
20260904140425 71 13 0.0 0.0 0.00 0.00 0.00 96 1016.2
20260904135924 71 14 0.0 0.0 0.00 0.00 0.00 93 1016.2
20260904135423 70 5 0.0 0.0 0.00 0.00 0.00 96 1015.8
20260904134920 70 5 0.0 0.0 0.00 0.00 0.00 96 1016.3
20260904134420 69 5 0.0 1.0 0.00 0.00 0.00 97 1016.2
20260904133915 69 2 0.0 0.0 0.00 0.00 0.00 99 1016.1
20260904133415 69 3 0.0 0.0 0.00 0.00 0.00 99 1016.2
20260904132910 68 354 0.0 0.0 0.00 0.00 0.00 99 1016.2
20260904132405 67 353 0.0 0.0 0.00 0.00 0.00 99 1016.1
20260904131904 67 353 1.0 1.0 0.00 0.00 0.00 99 1016.3
20260904131400 66 18 0.0 0.0 0.00 0.00 0.00 99 1016.4
20260904130855 66 348 0.0 0.0 0.00 0.00 0.00 99 1016.3
20260904130354 66 348 0.0 0.0 0.00 0.00 0.00 99 1016.4
20260904125849 66 334 0.0 0.0 0.00 0.00 0.00 99 1016.3
20260904125346 65 334 0.0 0.0 0.00 0.00 0.00 99 1016.3
20260904124844 65 334 0.0 0.0 0.00 0.00 0.00 99 1016.2
20260904124342 64 334 0.0 0.0 0.00 0.00 0.00 99 1016.2
20260904123836 64 334 0.0 0.0 0.00 0.00 0.00 99 1016.1
20260904123332 64 334 0.0 0.0 0.00 0.00 0.00 99 1016.2
20260904122826 64 334 0.0 0.0 0.00 0.00 0.00 99 1016.2
20260904122321 63 334 0.0 0.0 0.00 0.00 0.00 99 1016.2
20260904121816 63 334 0.0 0.0 0.00 0.00 0.00 99 1016.0
20260904121312 62 334 0.0 0.0 0.00 0.00 0.00 99 1016.2
20260904120809 62 334 0.0 0.0 0.00 0.00 0.00 99 1016.0
20260904120304 62 334 0.0 0.0 0.00 0.00 0.00 99 1016.0
20260904115759 62 334 0.0 0.0 0.00 0.00 0.00 99 1015.9
20260904115254 61 334 0.0 0.0 0.00 0.00 0.00 99 1015.7
20260904114749 61 334 0.0 0.0 0.00 0.00 0.00 99 1015.7
20260904114248 61 334 0.0 0.0 0.00 0.00 0.00 99 1015.9
20260904113744 61 334 0.0 0.0 0.00 0.00 0.00 99 1016.0
20260904113243 61 334 0.0 0.0 0.00 0.00 0.00 99 1015.9
20260904112738 61 334 0.0 0.0 0.00 0.00 0.00 99 1015.7
20260904112233 61 334 0.0 0.0 0.00 0.00 0.00 99 1015.5
20260904111729 60 334 0.0 0.0 0.00 0.00 0.00 99 1015.9
20260904111225 60 334 0.0 0.0 0.00 0.00 0.00 99 1015.5
20260904110720 60 334 0.0 0.0 0.00 0.00 0.00 99 1015.6
20260904110219 60 334 0.0 0.0 0.00 0.00 0.00 99 1015.5
20260904105714 60 334 0.0 0.0 0.00 0.00 0.00 99 1015.5
20260904105209 60 334 0.0 0.0 0.00 0.00 0.00 99 1015.1
20260904104704 60 334 0.0 0.0 0.00 0.00 0.00 99 1015.1
20260904104200 60 334 0.0 0.0 0.00 0.00 0.00 99 1014.9
20260904103656 61 334 0.0 0.0 0.00 0.00 0.00 99 1014.9
20260904103151 60 334 0.0 0.0 0.00 0.00 0.00 99 1015.2
20260904102647 61 334 0.0 0.0 0.00 0.00 0.00 99 1015.0
20260904102142 61 334 0.0 0.0 0.00 0.00 0.00 99 1015.1
20260904101639 61 334 0.0 0.0 0.00 0.00 0.00 99 1015.0
20260904101134 61 334 0.0 0.0 0.00 0.00 0.00 99 1015.2
20260904100630 61 334 0.0 0.0 0.00 0.00 0.00 99 1015.1
20260904100125 62 334 0.0 0.0 0.00 0.00 0.00 99 1014.9
20260904095620 62 334 0.0 0.0 0.00 0.00 0.00 99 1014.9
20260904095120 62 334 0.0 0.0 0.00 0.00 0.00 99 1014.8
20260904094614 62 334 0.0 0.0 0.00 0.00 0.00 99 1014.9
20260904094109 62 334 0.0 0.0 0.00 0.00 0.00 99 1014.9
20260904093607 62 334 0.0 0.0 0.00 0.00 0.00 99 1015.2
20260904093101 62 334 0.0 0.0 0.00 0.00 0.00 99 1014.8
20260904092557 62 334 0.0 0.0 0.00 0.00 0.00 99 1014.6
20260904092053 62 334 0.0 0.0 0.00 0.00 0.00 99 1014.8
20260904091549 62 334 0.0 0.0 0.00 0.00 0.00 99 1014.7
20260904091048 62 334 0.0 0.0 0.00 0.00 0.00 99 1014.8
20260904090544 63 334 0.0 0.0 0.00 0.00 0.00 99 1014.7
20260904090040 62 334 0.0 0.0 0.00 0.00 0.00 99 1014.7
20260904085540 63 334 0.0 0.0 0.00 0.00 0.00 99 1014.8
20260904085039 63 334 0.0 0.0 0.00 0.00 0.00 99 1014.8
20260904084535 63 334 0.0 0.0 0.00 0.00 0.00 99 1014.7
20260904084032 63 334 0.0 0.0 0.00 0.00 0.00 99 1014.8
20260904083527 63 334 0.0 0.0 0.00 0.00 0.00 99 1014.7
20260904083023 64 334 0.0 0.0 0.00 0.00 0.00 99 1014.4
20260904082518 64 334 0.0 0.0 0.00 0.00 0.00 99 1014.3
20260904082013 64 334 0.0 0.0 0.00 0.00 0.00 99 1014.3
20260904081509 64 334 0.0 0.0 0.00 0.00 0.00 99 1014.2
20260904081004 65 334 0.0 0.0 0.00 0.00 0.00 99 1014.0
20260904080459 65 334 0.0 0.0 0.00 0.00 0.00 99 1014.1
20260904075955 65 334 0.0 0.0 0.00 0.00 0.00 99 1014.2
20260904075451 65 334 0.0 0.0 0.00 0.00 0.00 99 1014.0
20260904074950 65 334 0.0 0.0 0.00 0.00 0.00 99 1014.1
20260904074445 65 334 0.0 0.0 0.00 0.00 0.00 99 1014.2
20260904073940 65 334 0.0 0.0 0.00 0.00 0.00 99 1014.1
20260904073436 65 334 0.0 0.0 0.00 0.00 0.00 99 1014.3
20260904072931 65 334 0.0 0.0 0.00 0.00 0.00 99 1014.1
20260904072426 66 334 0.0 0.0 0.00 0.00 0.00 99 1014.6
20260904071921 65 334 0.0 0.0 0.00 0.00 0.00 99 1014.6
20260904071417 65 334 0.0 0.0 0.00 0.00 0.00 99 1014.4
20260904070912 65 334 0.0 0.0 0.00 0.00 0.00 99 1014.4
20260904070411 66 334 0.0 0.0 0.00 0.00 0.00 99 1014.3
20260904065910 66 334 0.0 0.0 0.00 0.00 0.00 99 1014.7
20260904065407 66 334 0.0 0.0 0.00 0.00 0.00 99 1015.0
20260904064906 66 334 0.0 0.0 0.00 0.00 0.00 99 1014.9
20260904064403 66 334 0.0 0.0 0.00 0.00 0.00 99 1014.8
20260904063858 66 334 0.0 0.0 0.00 0.00 0.00 99 1014.7
20260904063354 66 334 0.0 0.0 0.00 0.00 0.00 99 1015.1
20260904062849 66 334 0.0 0.0 0.00 0.00 0.00 99 1015.2
20260904062345 66 334 0.0 0.0 0.00 0.00 0.00 99 1015.1
20260904061841 66 334 0.0 0.0 0.00 0.00 0.00 99 1015.5
20260904061337 66 334 0.0 0.0 0.00 0.00 0.00 99 1015.4
20260904060833 66 334 0.0 0.0 0.00 0.00 0.00 99 1015.4
20260904060329 66 334 0.0 0.0 0.00 0.00 0.00 99 1015.7
20260904055824 66 334 0.0 0.0 0.00 0.00 0.00 99 1015.4
20260904055319 66 334 0.0 0.0 0.00 0.00 0.00 99 1015.5
20260904054814 66 334 0.0 0.0 0.00 0.00 0.00 99 1015.4
20260904054310 66 334 0.0 0.0 0.00 0.00 0.00 99 1015.2
20260904053800 66 334 0.0 0.0 0.00 0.00 0.00 99 1015.4
20260904053259 66 334 0.0 0.0 0.00 0.00 0.00 99 1015.4
20260904052756 66 334 0.0 0.0 0.00 0.00 0.00 99 1015.1
20260904052251 66 334 0.0 0.0 0.00 0.00 0.00 99 1015.2
20260904051748 66 334 0.0 0.0 0.00 0.00 0.00 99 1015.2
20260904051243 66 334 0.0 0.0 0.00 0.00 0.00 99 1015.6
20260904050738 66 334 0.0 0.0 0.00 0.00 0.00 99 1015.4
20260904050234 66 334 0.0 0.0 0.00 0.00 0.00 99 1015.6
20260904045729 66 334 0.0 0.0 0.00 0.00 0.00 99 1015.5
20260904045224 66 334 0.0 0.0 0.00 0.00 0.00 99 1015.8
20260904044718 66 334 0.0 0.0 0.00 0.00 0.00 99 1015.9
20260904044215 66 334 0.0 0.0 0.00 0.00 0.00 99 1015.8